Flag for U.S.A. Weather past 2 weeks in Bellingham, Washington, U.S.A.

Now
62 °F

Clear.


Feels Like: 62 °F
Forecast: 58 / 77 °F
Wind: 8 mph from South

Location: Bellingham International Airport

Current Time: Jul 30, 2014 at 2:20:18 AM

Latest Report: Jul 30, 2014 at 1:53 AM


Visibility: 10 mi

Pressure: 30.09 "Hg

Humidity: 78%

Dew point: 55 °F

Location of BellinghamLocation

Historic Weather in Bellingham — Graph

°F

Bellingham temperature yesterday

Maximum temperature yesterday: 78 °F (at 3:53 PM)
Minimum temperature yesterday: 55 °F (at 3:53 AM)
Average temperature yesterday: 66 °F

Past Weeks' High & Low Weather Summary

 TemperatureHumidityPressure
High82 °F (Jul 28, 3:53 PM)94% (Jul 24, 9:00 AM)30.22 "Hg (Jul 24, 9:00 AM)
Low51 °F (Jul 26, 5:53 AM)37% (Jul 28, 3:53 PM)29.90 "Hg (Jul 16, 8:53 PM)
Average64 °F72%30.06 "Hg
* Reported Jul 15 12:53 AM — Jul 30 12:53 AM, Bellingham, Weather by CustomWeather, © 2014

Note: Actual official high and low records may vary slightly from our data, if they occured in-between our weather recording intervals... More about our weather records

Advertising

Bellingham weather history for previous 24 hours

 ConditionsComfort  
Time TempWeatherWind HumidityBarometerVisibility
12:53 AM
Jul 30
63 °FClear.8 mph75%30.08 "Hg10 mi
11:53 PM
Jul 29
64 °FClear.8 mph73%30.08 "Hg10 mi
10:53 PM65 °FClear.9 mph73%30.07 "Hg10 mi
9:53 PM66 °FClear.10 mph70%30.07 "Hg10 mi
8:53 PM67 °FSunny.9 mph66%30.06 "Hg10 mi
7:53 PM70 °FSunny.6 mph59%30.06 "Hg10 mi
6:53 PM74 °FSunny.3 mph50%30.06 "Hg10 mi
5:53 PM74 °FSunny.7 mph52%30.07 "Hg10 mi
4:53 PM77 °FSunny.6 mph48%30.08 "Hg10 mi
3:53 PM78 °FSunny.6 mph48%30.10 "Hg10 mi
2:53 PM76 °FSunny.6 mph52%30.12 "Hg10 mi
1:53 PM74 °FSunny.8 mph53%30.13 "Hg10 mi
12:53 PM73 °FSunny.3 mph59%30.14 "Hg10 mi
11:53 AM68 °FSunny.6 mph65%30.15 "Hg10 mi
10:53 AM66 °FSunny.6 mph70%30.15 "Hg10 mi
9:53 AM65 °FSunny.5 mph70%30.15 "Hg10 mi
8:53 AM61 °FSunny.6 mph78%30.15 "Hg10 mi
7:53 AM60 °FSunny.7 mph80%30.14 "Hg10 mi
6:53 AM59 °FSunny.3 mph84%30.14 "Hg10 mi
5:53 AM58 °FClear.5 mph84%30.12 "Hg10 mi
4:53 AM58 °FClear.3 mph87%30.11 "Hg10 mi
3:53 AM55 °FClear.No wind90%30.10 "Hg10 mi
2:53 AM56 °FClear.No wind87%30.09 "Hg10 mi
Weather by CustomWeather, © 2014

See weather overviewHow to use our weather pages